Regional Weather Roundup
Issued by NWS

Home | Current Version | Previous Version | Graphics & Text | Print | Product List | Glossary On
Versions: 1 2 3 4 5 6 7 8 9 10 11 12 13 14 15 16 17 18 19 20 21 22 23 24 25 26 27 28 29 30 31 32 33 34 35 36 37 38 39 40 41 42 43 44 45 46 47 48 49 50
165
ASUS45 KBOU 260407
RWRCO

WEATHER ROUNDUP FOR COLORADO
NATIONAL WEATHER SERVICE DENVER/BOULDER CO
1000 PM MDT MON SEP 25 2017

NOTE: "FAIR" INDICATES FEW OR NO CLOUDS BELOW 12000 FEET WITH NO
SIGNIFICANT WEATHER AND/OR OBSTRUCTIONS TO VISIBILITY.

COZ001>005-013-030-031-260500-
...NORTHWEST COLORADO...

CITY           SKY/WX    TMP DP  RH WIND       PRES   REMARKS
CRAIG          FAIR      37  29  72 CALM      30.16R
HAYDEN         FAIR      39  27  62 CALM      30.18R
MEEKER         FAIR      41  28  60 VRB3      30.15R
RABBIT EARS PA FAIR      28  25  86 NW6       30.24S WCI  22
STEAMBOAT SPGS FAIR      37  28  70 CALM      30.16R
WALDEN         MOCLDY    34  27  75 CALM      30.21R
$$

COZ006>008-011-260500-
...WEST CENTRAL VALLEYS...

CITY           SKY/WX    TMP DP  RH WIND       PRES   REMARKS
GRAND JUNCTION FAIR      50  31  48 VRB3      30.05R
MONTROSE       FAIR      44  33  65 E6        30.11R
EAGLE          FAIR      45  26  47 S3        30.16R
RIFLE          FAIR      51  29  42 W8        30.10R
DELTA          FAIR      51  33  49 CALM      30.07R
NUCLA          FAIR      48  28  46 SE7       30.12R
$$

COZ017>023-064>068-260500-
...SOUTHWEST COLORADO...

CITY           SKY/WX    TMP DP  RH WIND       PRES   REMARKS
DURANGO        FAIR      43  21  41 N3        30.08R
CORTEZ         FAIR      43  32  65 NE6       30.06R
PAGOSA SPRINGS FAIR      40  17  39 NE6       30.15R
TELLURIDE      FAIR      38  23  55 SE6       30.20S
WOLF CREEK PAS FAIR      30   9  40 S12       30.35R WCI  21
$$

COZ009-010-012-014-032>034-037-058>063-260500-
...CENTRAL COLORADO...

CITY           SKY/WX    TMP DP  RH WIND       PRES   REMARKS
ASPEN          FAIR      37  26  64 S8        30.15R
BUENA VISTA    MOCLDY    42  36  80 CALM      30.17R
COPPER MTN     FAIR      32  21  64 MISG      30.29R
BERTHOUD PASS  FAIR      21  12  68 NW10      30.30S WCI  10
COTTONWOOD PAS   N/A     41  37  87 CALM      30.23R
GUNNISON       FAIR      39  16  39 NW3       30.15R
KREMMLING      FAIR      45  28  53 SW3       30.19R
LEADVILLE      FAIR      28  13  53 NE3       30.21R
SALIDA         FAIR      44  37  75 S5        30.23R
SUNLIGHT       FAIR      30  21  69 W5        30.28S WCI  25
WILKERSON PASS FOG      N/A N/A N/A S7        30.30R VSB 1/4
$$

COZ069>075-260500-
...SAN LUIS VALLEY/SANGRE DE CRISTO MOUNTAINS...

CITY           SKY/WX    TMP DP  RH WIND       PRES   REMARKS
ALAMOSA        FLURRIES  39  14  36 S9        30.10R
DEL NORTE      FAIR      45  13  27 W7        30.13R
LA VETA PASS   SNOW      36  34  93 NE13      30.35R VSB<1/4
SAGUACHE       FAIR      46  21  36 NW17      30.13R
$$

COZ035-036-038>040-260500-
...NORTHERN COLORADO FRONT RANGE...

CITY           SKY/WX    TMP DP  RH WIND       PRES   REMARKS
DENVER INTL AP FAIR      44  41  89 E7        30.13R
DMNS CITY PARK   N/A     46  43  91 E10       30.13S
AURORA         MOCLDY    46  44  95 E9        30.15R
FRONT RANGE AP FAIR      45  43  93 SE8       30.15R
ERIE MUNI ARPT FAIR      47  42  82 SE8       30.18S
BOULDER MUN AP FAIR      46  45  93 CALM      30.12S
CENTENNIAL     MOCLDY    46  44  93 CALM      30.14R
BROOMFIELD     MOCLDY    46  43  87 CALM      30.14R
FORT COLLINS   CLOUDY    48  43  82 E12       30.14R
LONGMONT       FAIR      47  42  82 N3        30.15R
$$

COZ041-046-047-076>085-087-088-260500-
...PIKES PEAK/PALMER DIVIDE AND SOUTHERN FOOTHILLS...

CITY           SKY/WX    TMP DP  RH WIND       PRES   REMARKS
COLO. SPRINGS  LGT RAIN  46  44  93 E7        30.18R FOG
A. F. ACADEMY  MOCLDY    45  42  89 S3        30.16R
SCHRIEVER AFB  RAIN      45  43  95 MISG      30.17R
CHEYENNE MTN   RAIN      42  41  97 N3        30.13R
ELLICOTT       CLOUDY   N/A N/A N/A SE6       30.16R
FALCON         LGT RAIN  43  42  97 E5        30.18S
FORT CARSON    LGT RAIN  48  47  95 SE9       30.15R
LIMON            N/A    N/A N/A N/A MISG      30.15R
MONUMENT HILL  MOCLDY    39  37  93 CALM      30.19R
CANON CITY     NOT AVBL
WALSENBURG     NOT AVBL
TRINIDAD       CLOUDY    48  47  96 E6        30.15R
$$

COZ042>045-048>051-090-091-260500-
...NORTHEAST COLORADO...

CITY           SKY/WX    TMP DP  RH WIND       PRES   REMARKS
GREELEY ARPT   CLOUDY    46  43  89 E5        30.15R
AKRON          CLOUDY    46  41  82 N8        30.15R
BURLINGTON     CLOUDY    48  47  96 N7        30.13R
WRAY           CLOUDY    46  46 100 NE6       30.14R FOG
YUMA           CLOUDY    45  43  93 N5        30.14R
STERLING       CLOUDY    50  43  76 NE3       30.13R
HOLYOKE        DRIZZLE   48  45  87 NE3       30.15R
FORT MORGAN    CLOUDY    46  40  80 E6        30.15R
$$

COZ086-089-092>099-260500-
...SOUTHEAST COLORADO...

CITY           SKY/WX    TMP DP  RH WIND       PRES   REMARKS
PUEBLO         CLOUDY    52  47  83 SE10      30.14R
LA JUNTA       CLOUDY    51  49  92 E8        30.13R
LAMAR          CLOUDY    51  47  86 N8        30.11R
SPRINGFIELD      N/A     48  48 100 N13       30.11R
$$




USA.gov is the U.S. government's official web portal to all federal, state and local government web resources and services.